Home   Weather   Christiansted   Past weeks

Flag for US Virgin Islands Past Weather in Christiansted, US Virgin Islands — Yesterday and Last 2 Weeks

89 °F

Scattered clouds.

Feels Like: 98 °F
Forecast: 78 / 86 °F
Wind: 13 mph from Northeast

Location: Christiansted / Henry E. Rohlsen Airport - Saint Croix

Current Time: Oct 26, 2016 at 11:31:57 AM

Latest Report: Oct 26, 2016 at 10:53 AM

Visibility: 10 mi

Pressure: 29.88 "Hg

Humidity: 61%

Dew Point: 74 °F

Location of ChristianstedLocation

Past Weather in Christiansted — Graph


Christiansted Temperature Yesterday

Maximum temperature yesterday: 90 °F (at 10:53 AM)
Minimum temperature yesterday: 77 °F (at 12:53 AM)
Average temperature yesterday: 83 °F

High & Low Weather Summary for the Past Weeks

High90 °F (Oct 14, 10:53 AM)100% (Oct 11, 3:53 PM)30.00 "Hg (Oct 11, 3:53 PM)
Low66 °F (Oct 12, 12:53 AM)53% (Oct 15, 1:53 PM)29.79 "Hg (Oct 17, 3:53 PM)
Average81 °F79%29.90 "Hg
* Reported Oct 11 3:53 PM — Oct 26 9:53 AM, Christiansted, Weather by CustomWeather, © 2016

Note: Actual official high and low records may vary slightly from our data, if they occured in-between our weather recording intervals... More about our weather records


Christiansted Weather History for the Previous 24 Hours

Scroll right to see more
Time TempWeatherWind HumidityBarometerVisibility
9:53 AM
Wed, Oct 26
89 °FScattered clouds.10 mph63%29.88 "Hg10 mi
8:53 AM85 °FScattered clouds.8 mph72%29.88 "Hg10 mi
7:53 AM84 °FScattered clouds.6 mph74%29.87 "Hg10 mi
6:53 AM78 °FScattered clouds.3 mph87%29.86 "Hg10 mi
5:53 AM76 °FClear.3 mph91%29.83 "Hg10 mi
4:53 AM76 °FClear.3 mph91%29.82 "Hg10 mi
3:53 AM77 °FClear.3 mph90%29.82 "Hg10 mi
2:53 AM77 °FPassing clouds.5 mph90%29.82 "Hg10 mi
1:53 AM77 °FClear.5 mph90%29.83 "Hg10 mi
12:53 AM78 °FClear.5 mph87%29.85 "Hg10 mi
11:53 PM
Tue, Oct 25
79 °FPassing clouds.3 mph84%29.86 "Hg10 mi
10:53 PM79 °FPassing clouds.5 mph84%29.86 "Hg10 mi
9:53 PM79 °FClear.5 mph84%29.87 "Hg10 mi
8:53 PM79 °FPassing clouds.3 mph84%29.87 "Hg10 mi
7:53 PM79 °FPassing clouds.5 mph84%29.86 "Hg10 mi
6:53 PM80 °FPassing clouds.5 mph79%29.83 "Hg10 mi
5:53 PM84 °FClear.5 mph67%29.81 "Hg10 mi
4:53 PM87 °FPassing clouds.7 mph59%29.80 "Hg10 mi
3:53 PM88 °FScattered clouds.10 mph61%29.81 "Hg10 mi
2:53 PM88 °FScattered clouds.10 mph59%29.80 "Hg10 mi
1:53 PM89 °FScattered clouds.14 mph61%29.82 "Hg10 mi
12:53 PM89 °FPassing clouds.14 mph59%29.84 "Hg10 mi
11:53 AM90 °FScattered clouds.13 mph59%29.88 "Hg10 mi
Weather by CustomWeather, © 2016

See weather overviewHow to use our weather pages